Weather Service Report


049 
ASUS41 KCTP 310110
RWRCTP

REGIONAL WEATHER ROUNDUP
NATIONAL WEATHER SERVICE STATE COLLEGE PA
900 PM EDT SAT JUL 30 2016

Note: "fair" indicates few or no clouds below 12,000 feet with no 
significant weather and/or obstructions to visibility.

* = STATION THAT DOES NOT REPORT PRECIPITATION /E.G. RAIN...SNOW...ETC/
    THUNDER OR FOG.

PAZ002>004-007>009-013>016-020>023-029>032-310200-
WESTERN PENNSYLVANIA
  
CITY           SKY/WX    TMP DP  RH WIND       PRES   REMARKS
ERIE           PTCLDY    76  67  73 E7        29.96R                  
MEADVILLE      CLOUDY    69  67  93 CALM      29.99R                  
FRANKLIN*      CLOUDY    72  66  83 CALM      30.01R                  
NEW CASTLE     FAIR      72  70  93 N3        29.98R                  
BEAVER COUNTY  NOT AVBL                                               
BUTLER*        CLOUDY    72  66  83 SE3       30.00R                  
PITTSBURGH INT TSTM      70  67  90 SE8       29.95S                  
PITTSBURGH     LGT RAIN  73  68  84 CALM      29.98R                  
INDIANA*       CLOUDY    72  70  94 E3        30.02R                  
LATROBE        CLOUDY    72  72 100 CALM      29.99R                  
WASHINGTON CO* CLOUDY    70  66  88 NE7       29.99R                  
$$

PAZ004>006-010>012-017>019-024>028-033>037-041-042-045-046-049>053-310200-
CENTRAL PENNSYLVANIA
  
CITY           SKY/WX    TMP DP  RH WIND       PRES   REMARKS
BRADFORD       CLOUDY    67  64  90 E3        30.04S                  
DUBOIS         MOCLDY    68  64  87 NE5       30.02R                  
CLEARFIELD     CLOUDY    70  65  84 E7        30.01S                  
JOHNSTOWN      CLOUDY    69  65  86 E3        30.03R                  
ALTOONA        CLOUDY    71  70  96 CALM      30.01R                  
STATE COLLEGE  CLOUDY    70  68  94 NE7       30.00S                  
WILLIAMSPORT   CLOUDY    73  68  84 NE3       29.98R                  
SELINSGROVE    CLOUDY    73  73 100 CALM      29.98S                  
FT INDIANTOWN  CLOUDY    71  71 100 N5        30.00R                  
CAPITAL CITY   CLOUDY    75  71  87 E7        29.97S                  
HARRISBURG     CLOUDY    74  73  97 E10       29.97R                  
YORK           CLOUDY    74  71  91 CALM      29.97R                  
$$

PAZ038>040-043-044-047-048-054-055-060>062-067>071-310200-
EASTERN PENNSYLVANIA
  
CITY           SKY/WX    TMP DP  RH WIND       PRES   REMARKS
SCRANTON       LGT RAIN  69  66  90 NE7       30.03S                  
MOUNT POCONO   LGT RAIN  65  65 100 SE9       30.08S FOG              
ALLENTOWN      LGT RAIN  72  70  94 NE6       30.02S                  
QUAKERTOWN*    CLOUDY    72  72 100 CALM      30.02F                  
READING        CLOUDY    71  67  87 CALM      29.99R                  
LANCASTER      CLOUDY    71  70  96 NE7       29.99R                  
COATESVILLE    LGT RAIN  72  70  94 SE7       30.02S                  
POTTSTOWN      LGT RAIN  71  70  96 CALM      30.03R                  
BLUE BELL      CLOUDY    72  72 100 E5        30.01S                  
DOYLESTOWN     LGT RAIN  70  70 100 CALM      30.02S                  
WILLOW GROVE   NOT AVBL                                               
NORTH PHILA    LGT RAIN  76  75  97 E7        30.02S                  
PHILADELPHIA   LGT RAIN  77  74  90 SE6       30.01S                  
$$
  

Return to Home page


Western Regional Climate Center, wrcc@dri.edu